Preview of NWS' New Version of Forecast
This preview is not operational and should not be used for support decisions.

Regional Weather Roundup (RWR)

Issued by National Weather Service (NWS)

                            
000
ASUS42 KTBW 221916
RWRFL 
FLORIDA REGIONAL WEATHER ROUNDUP
NATIONAL WEATHER SERVICE TAMPA BAY RUSKIN FL
200 PM EST FRI FEB 22 2019

NOTE: "FAIR" INDICATES FEW OR NO CLOUDS BELOW 12,000 FEET WITH NO
SIGNIFICANT WEATHER AND/OR OBSTRUCTIONS TO VISIBILITY.

FLZ001>010-012>015-112-114-115-222000-
PANHANDLE FLORIDA
  
CITY           SKY/WX    TMP DP  RH WIND       PRES   REMARKS
PENSACOLA      CLOUDY    72  67  84 E10       30.11F                  
PENSACOLA NAS  CLOUDY    72  69  90 E13       30.10F                  
MILTON NAS     CLOUDY    75  68  78 SE10      30.11                   
CRESTVIEW      CLOUDY    75  66  73 S6        30.14F                  
DUKE FIELD     PTSUNNY   75  68  78 SE6       30.12F                  
VALPARAISO     CLOUDY    73  68  83 SE8       30.12F                  
PANAMA CITY    CLOUDY    76  69  79 S13       30.13F                  
TYNDALL AFB    PTSUNNY   75  69  81 S14       30.12F                  
APALACHICOLA   CLOUDY    70  66  87 SE8       30.16S                  

STATION/POSITION SKY/WX   TEMP    WIND        PRES    WAVE   SWELL
                          AIR SEA DIR/SP/G            HT/PER HT/PER
                          (F)     (DEG/KT/KT) (MB)    (FT/S) (FT/S)
30.1N   87.6W              66      90/  8/ 10 1019.7F   3/ 7   2/ 7
29.2N   88.2W                     120/ 10/ 12 1019.1F   3/ 7   3/ 7
PANAMA CITY BEAC           68 65  130/ 11/ 11 1020.8F
TOWER C                    65     100/ 10/ 10 1020.7F

$$
FLZ011-016>038-118-127-128-134-139-239-222000-
NORTH FLORIDA
  
CITY           SKY/WX    TMP DP  RH WIND       PRES   REMARKS
MARIANNA       PTSUNNY   76  67  73 S8        30.12F                  
TALLAHASSEE    PTSUNNY   78  69  73 VRB3      30.14F                  
PERRY          FAIR      82  69  64 S6        30.15F                  
LIVE OAK       MOSUNNY   82  66  57 VRB3      30.14F                  
CROSS CITY     PTSUNNY   83  67  57 SW5       30.14F                  
LAKE CITY      FAIR      81  64  57 W6        30.15F                  
GAINESVILLE    FAIR      86  65  49 CALM      30.16F                  
WILLISTON        N/A    N/A N/A N/A MISG        N/A                   
PALATKA        CLOUDY    82  66  57 SW7       30.15F                  
MAYPORT NAS    PTSUNNY   77  69  76 SE9       30.14F                  
JACKSONVILLE   PTSUNNY   84  60  44 SW6       30.13F                  
JAX NAS        PTSUNNY   83  62  49 SE6       30.15F                  
JAX CECIL      PTSUNNY   88  64  45 SW6       30.14F                  
FERNANDINA BEA FAIR      75  68  77 SE9       30.14F                  
ST AUGUSTINE   FAIR      76  67  73 SE14      30.15F                  
PALM COAST     PTSUNNY   81  68  65 SE6       30.15F                  

STATION/POSITION SKY/WX   TEMP    WIND        PRES    WAVE   SWELL
                          AIR SEA DIR/SP/G            HT/PER HT/PER
                          (F)     (DEG/KT/KT) (MB)    (FT/S) (FT/S)
SHELL POINT      NOT AVBL
KEATON BEACH               72     190/  5/  6 1021.1F
CEDAR KEY                  74     130/  2/  2 1021.9F
FERNANDINA                        100/  4/  6 1021.5F
30.7N   81.3W                 65                N/A     2/ 8
MAYPORT                           100/  8/ 10 1020.9F
31.4N   80.9W              63 60  190/  6/  8 1021.0F   2/ 9   2/ 9
ST AUGUSTINE               68 61  150/  8/  9 1021.1F

$$
FLZ040-043>046-052-053-057-058-063-144-222000-
INTERIOR CENTRAL FLORIDA
  
CITY           SKY/WX    TMP DP  RH WIND       PRES   REMARKS
OCALA          FAIR      85  64  49 SE7       30.14F                  
LEESBURG       FAIR      83  63  50 S5        30.15F                  
SANFORD        FAIR      84  63  49 VRB5      30.14F                  
ORLANDO EXEC   FAIR      84  63  49 S5        30.14F                  
ORLANDO INTL   FAIR      84  63  49 SE7       30.14F                  
KISSIMMEE      FAIR      86  63  45 S5        30.15F                  
WINTER HAVEN   FAIR      86  62  44 S7        30.15F                  
LAKELAND       MOSUNNY   84  63  48 CALM      30.14F                  
BARTOW         PTSUNNY   86  63  45 E7        30.13F                  
SEBRING        FAIR      86  63  46 S9        30.13F                  
OKEECHOBEE     FAIR      84  64  51 S6        30.12F                  

$$
FLZ041-047-054-059-064-141-147-222000-
EAST CENTRAL FLORIDA
  
CITY           SKY/WX    TMP DP  RH WIND       PRES   REMARKS
ORMOND BEACH   MOSUNNY   81  68  65 E6        30.15F                  
DAYTONA BEACH  FAIR      82  70  66 E9        30.15F                  
DELAND         PTSUNNY   84  63  48 CALM      30.14F                  
NEW SMYRNA BEA MOSUNNY   82  70  65 SE9       30.16F                  
JFK SPACE CTR  FAIR      84  72  66 SE8       30.14F                  
TITUSVILLE     MOSUNNY   86  70  58 SE9       30.15F                  
CAPE CANAVERAL FAIR      82  71  67 SE6       30.14F                  
PATRICK AFB    FAIR      77  71  83 E10       30.14F                  
MELBOURNE      FAIR      83  70  64 SE14      30.14F                  
VERO BEACH     FAIR      82  71  69 E13       30.14F                  
FT PIERCE      FAIR      83  70  64 E17       30.13F                  
STUART         MOSUNNY   84  70  61 SE15G21   30.15F                  

STATION/POSITION SKY/WX   TEMP    WIND        PRES    WAVE   SWELL
                          AIR SEA DIR/SP/G            HT/PER HT/PER
                          (F)     (DEG/KT/KT) (MB)    (FT/S) (FT/S)
28.5N   80.2W              73      80/  2/  2 1021.8F   3/ 8   3/ 8
28.9N   78.5W              76 76  170/  8/ 12 1022.2F   4/ 7   3/ 7
TRIDENT PIER                      100/  5/  6 1022.3F
28.4N   80.5W                 69                N/A     2/ 7

$$
FLZ050-056-061-142-242-148-248-149-249-151-251-155-255-
160-260-222000-
WEST CENTRAL FLORIDA
  
CITY           SKY/WX    TMP DP  RH WIND       PRES   REMARKS
CRYSTAL RIVER  PTSUNNY   82  68  61 W3        30.13F                  
INVERNESS      PTSUNNY   86  66  51 CALM      30.14F                  
BROOKSVILLE    FAIR      86  65  49 MISG      30.14F                  
CLEARWATER AIR FAIR      82  64  54 SE5       30.13F                  
ST PETE CLEARW NOT AVBL                                               
TAMPA INTL     FAIR      84  68  58 S10       30.13F                  
TAMPA EXEC     FAIR      84  64  51 CALM      30.13F                  
PLANT CITY     FAIR      88  63  42 S5        30.15F                  
MACDILL AFB    FAIR      86  66  51 SE5       30.12F                  
PETER O KNIGHT PTSUNNY   84  68  58 SW5       30.13F                  
ST PETERSBURG  FAIR      82  72  71 CALM      30.11F                  
SARASOTA       PTSUNNY   83  69  62 SW12      30.11F                  
VENICE         FAIR      82  72  69 S12       30.13F                  

STATION/POSITION SKY/WX   TEMP    WIND        PRES    WAVE   SWELL
                          AIR SEA DIR/SP/G            HT/PER HT/PER
                          (F)     (DEG/KT/KT) (MB)    (FT/S) (FT/S)
27.3N   84.2W                 73                N/A     3/ 5
CLEARWATER BEACH           74 72  240/  6/  7 1020.7F
MIDDLE TAMPA BAY                  270/  8/  9 1020.6F
VENICE                     76 72  180/ 12/ 13 1020.8F

$$
FLZ066-069-070-075>078-162-262-165-265-222000-
SOUTHWEST FLORIDA AND KEYS
  
CITY           SKY/WX    TMP DP  RH WIND       PRES   REMARKS
PUNTA GORDA    FAIR      85  62  46 S8G21     30.13F                  
FT MYERS       FAIR      84  59  42 S8        30.11F                  
SOUTHWEST INTL FAIR      85  62  46 SE8       30.11F                  
NAPLES         PTSUNNY   86  63  45 S7G16     30.10F                  
MARCO ISLAND   FAIR     N/A N/A N/A SE9       30.12F                  
IMMOKALEE      FAIR      88  63  42 SE10G16   30.09F                  
MARATHON         N/A    N/A N/A N/A MISG      30.11                   
KEY WEST NAS   FAIR      85  72  65 E9        30.11F                  
KEY WEST INTL  FAIR      84  73  69 E9        30.12F                  

STATION/POSITION SKY/WX   TEMP    WIND        PRES    WAVE   SWELL
                          AIR SEA DIR/SP/G            HT/PER HT/PER
                          (F)     (DEG/KT/KT) (MB)    (FT/S) (FT/S)
NAPLES                            160/ 13/ 14 1019.6F
26.0N   85.6W              79 80  110/ 14/ 16 1018.5F   4/ 7   2/ 7
DRY TORTUGAS               78     130/ 11/ 12 1019.6F
SAND KEY                   78                 1019.8F
SOMBRERO KEY               78                 1019.2F
LONG KEY                   79 79   90/ 11/ 12 1020.1F
MOLASSES REEF              78 78  120/  9/ 10 1021.0

$$
FLZ067-068-071>074-168-172>174-222000-
SOUTHEAST FLORIDA 
  
CITY           SKY/WX    TMP DP  RH WIND       PRES   REMARKS
W PALM BEACH   FAIR      83  68  60 E10       30.14F                  
BOCA RATON     MOSUNNY   82  72  69 SE9G18    30.14F                  
FT LAUDER-EXEC FAIR      84  73  69 SE10      30.13F                  
FT LAUDERDALE  PTSUNNY   82  74  76 SE14      30.12F                  
POMPANO BEACH  PTSUNNY   83  72  69 SE15      30.14F                  
PEMBROKE PINES PTSUNNY   83  69  62 SE12      30.14F                  
OPA LOCKA      PTSUNNY   86  71  60 SE14      30.13F                  
MIAMI          FAIR      82  71  69 SE14      30.13F                  
WEST KENDALL   PTSUNNY   84  69  60 SE15      30.12F                  
HOMESTEAD      PTSUNNY   82  72  69 E10       30.12S                  

STATION/POSITION SKY/WX   TEMP    WIND        PRES    WAVE   SWELL
                          AIR SEA DIR/SP/G            HT/PER HT/PER
                          (F)     (DEG/KT/KT) (MB)    (FT/S) (FT/S)
PORT EVERGLADES            80     130/  7/ 10 1020.5F
VIRGINIA KEY               79 79  120/  8/ 10 1019.9F
LAKE WORTH                        110/  7/  8 1021.8F
FOWEY ROCKS                78 77  110/ 10/ 11 1021.5F
SETTLEMENT POINT           76      90/ 12/ 13 1021.4F

$$